Home   Weather   Baden   Past weeks

Flag for Austria Past Weather in Baden, Lower Austria, Austria — Yesterday and Last 2 Weeks

Now
70 °F

Passing clouds.


Feels Like: 70 °F
Forecast: 67 / 80 °F
Wind: 9 mph from South

Location: Vienna Schwechat-Flughafen Airport

Current Time: Jul 23, 2017 at 12:49:17 am

Latest Report: Jul 23, 2017 at 12:20 am


Visibility: N/A

Pressure: 29.95 "Hg

Humidity: 83%

Dew Point: 64 °F

Location of BadenLocation

Past Weather in Baden — Graph

°F

Baden Temperature Yesterday

Maximum temperature yesterday: 88 °F (at 4:50 pm)
Minimum temperature yesterday: 64 °F (at 3:20 am)
Average temperature yesterday: 77 °F

High & Low Weather Summary for the Past Weeks

 TemperatureHumidityPressure
High91 °F (Jul 20, 4:20 pm)94% (Jul 9, 4:20 pm)30.24 "Hg (Jul 9, 4:20 pm)
Low48 °F (Jul 14, 5:20 am)29% (Jul 13, 4:20 pm)29.77 "Hg (Jul 10, 3:50 pm)
Average72 °F61%30.00 "Hg
* Reported Jul 7 11:20 pm — Jul 22 11:20 pm, Baden. Weather by CustomWeather, © 2017

Note: Actual official high and low records may vary slightly from our data, if they occured in-between our weather recording intervals... More about our weather records

Advertising

Baden Weather History for the Previous 24 Hours

Scroll right to see more
 ConditionsComfort  
Time TempWeatherWind HumidityBarometerVisibility
11:20 pm
Sat, Jul 22
72 °FPassing clouds.6 mph78%29.95 "HgN/A
10:50 pm72 °FPassing clouds.6 mph78%29.98 "HgN/A
10:20 pm72 °FPassing clouds.5 mph78%29.98 "HgN/A
9:50 pm73 °FClear.6 mph74%29.98 "Hg10 mi
9:20 pm75 °FPassing clouds.6 mph69%29.95 "HgN/A
8:50 pm77 °FClear.2 mph65%29.95 "Hg10 mi
8:20 pm77 °FSunny.7 mph65%29.95 "Hg10 mi
7:50 pm82 °FSunny.8 mph51%29.92 "Hg10 mi
7:20 pm82 °FSunny.10 mph51%29.92 "Hg10 mi
6:50 pm84 °FScattered clouds.14 mph51%29.92 "HgN/A
6:20 pm84 °FBroken clouds.14 mph55%29.92 "HgN/A
5:50 pm88 °FBroken clouds.9 mph43%29.92 "HgN/A
5:20 pm88 °FBroken clouds.7 mph43%29.92 "HgN/A
4:50 pm88 °FBroken clouds.12 mph40%29.92 "HgN/A
4:20 pm86 °FPartly sunny.8 mph46%29.92 "HgN/A
3:50 pm86 °FScattered clouds.6 mph46%29.92 "HgN/A
3:20 pm86 °FScattered clouds.6 mph46%29.92 "HgN/A
2:50 pm86 °FScattered clouds.5 mph46%29.92 "HgN/A
2:20 pm86 °FScattered clouds.7 mph46%29.92 "HgN/A
1:50 pm84 °FScattered clouds.6 mph48%29.92 "HgN/A
1:20 pm84 °FScattered clouds.5 mph48%29.95 "HgN/A
12:50 pm84 °FPassing clouds.5 mph51%29.95 "HgN/A
12:20 pm82 °FSunny.5 mph51%29.95 "Hg10 mi
11:50 am82 °FPassing clouds.7 mph51%29.95 "HgN/A
11:20 am81 °FPassing clouds.6 mph54%29.95 "HgN/A
10:50 am79 °FPassing clouds.3 mph58%29.95 "HgN/A
10:20 am77 °FSunny.2 mph57%29.95 "Hg10 mi
9:50 am77 °FSunny.2 mph57%29.95 "Hg10 mi
9:20 am75 °FSunny.7 mph61%29.95 "Hg10 mi
8:50 am73 °FSunny.8 mph61%29.95 "Hg10 mi
8:20 am73 °FPartly sunny.8 mph61%29.95 "HgN/A
7:50 am73 °FPartly sunny.7 mph65%29.95 "HgN/A
7:20 am72 °FPassing clouds.7 mph65%29.95 "HgN/A
6:20 am68 °FPassing clouds.5 mph73%29.92 "HgN/A
5:20 am70 °FPassing clouds.10 mph64%29.92 "HgN/A
4:50 am70 °FClear.7 mph64%29.92 "Hg10 mi
4:20 am66 °FClear.6 mph78%29.92 "Hg10 mi
3:50 am66 °FClear.5 mph78%29.92 "Hg10 mi
3:20 am64 °FClear.8 mph83%29.92 "Hg10 mi
2:50 am68 °FClear.8 mph73%29.92 "Hg10 mi
2:20 am68 °FClear.6 mph73%29.92 "Hg10 mi
1:50 am70 °FClear.5 mph73%29.92 "Hg10 mi
1:20 am68 °FClear.7 mph78%29.92 "Hg10 mi
12:50 am70 °FClear.5 mph73%29.95 "Hg10 mi
12:20 am68 °FClear.5 mph78%29.95 "Hg10 mi
Weather by CustomWeather, © 2017

See weather overviewHow to use our weather pages